Hourly Data Report for August 22, 2001

SHERBROOKE A
QUEBEC

45°26'00.000" N
71°41'00.000" W
241.40 m
7028124
71610
YSC

Download Data

Hourly Data (August 2001)
Hourly Data Report for August 22, 2001
TIME
LST
Temp Definition
°C
Dew Point Definition
°C
Rel Hum Definition
%
Precip. Amount Definition
mm

Wind Dir Definition
10's deg

Wind Spd Definition
km/h
Visibility Definition
km
Stn Press Definition
kPa
Hmdx Definition


Wind Chill Definition


Weather Definition


00:00 14.6 14.3 98     0 0.5 98.58      
01:00 15.3 15.0 98     0 0.5 98.56      
02:00 14.7 14.5 99   14 4 3.1 98.60      
03:00 14.2 14.1 99     0 0.3 98.61      
04:00 15.8 15.5 98     0 5.6 98.63      
05:00 16.8 16.3 97   25 6 6.4 98.65      
06:00 17.2 16.6 96   22 4 8.0 98.68      
07:00 18.3 17.4 94   22 7 16.1 98.71     Cloudy
08:00 19.3 18.1 93   22 7 16.1 98.70     Mostly Cloudy
09:00 20.6 18.8 89   27 9 24.1 98.72 27   Mostly Cloudy
10:00 23.2 18.8 76   26 13 24.1 98.73 30   Mostly Cloudy
11:00 23.3 18.4 74   27 15 24.1 98.73 30   Mostly Cloudy
12:00 23.7 18.8 74   29 11 24.1 98.73 30   Mostly Cloudy
13:00 24.3 16.8 63   25 11 24.1 98.72 29   Mostly Cloudy
14:00 26.1 16.6 56   24 15 24.1 98.66 31   Mainly Clear
15:00 25.5 16.4 57   28 17 24.1 98.66 30   Mainly Clear
16:00 26.1 14.8 50   27 13 24.1 98.65 30   Mainly Clear
17:00 25.1 14.6 52   28 11 15.0 98.66 29    
18:00 23.0 14.8 60   25 9 15.0 98.68 27    
19:00 17.8 15.0 84   21 4 15.0 98.67      
20:00 15.6 13.8 89   7 4 15.0 98.69      
21:00 14.5 13.7 95     0 15.0 98.70      
22:00 13.7 13.2 97   9 4 15.0 98.73      
23:00 13.1 12.6 97   9 4 15.0 98.72      

Notes on Data Quality.

Legend

  • E = Estimated
  • M = Missing
  • NA = Not Available*
  • [empty] = Indicates an unobserved value
Date modified: